Regional Weather Roundup
Issued by NWS Upton, NY

Current Version | Previous Version | Text Only | Print | Product List | Glossary On
Versions: 1 2 3 4 5 6 7 8 9 10 11 12 13 14 15 16 17 18 19 20 21 22 23 24 25 26 27 28 29 30 31 32 33 34 35 36 37 38 39 40 41 42 43 44 45 46 47 48 49
000 ASUS41 KOKX 011204 RWROKX REGIONAL WEATHER ROUNDUP NATIONAL WEATHER SERVICE NEW YORK NY 800 AM EDT TUE SEP 01 2015 NOTE: "FAIR" INDICATES FEW OR NO CLOUDS BELOW 12,000 FEET WITH NO SIGNIFICANT WEATHER AND/OR OBSTRUCTIONS TO VISIBILITY. NYZ071-072-176-178-NJZ106-104-011300- NEW YORK CITY METRO AREA CITY SKY/WX TMP DP RH WIND PRES REMARKS CENTRAL PARK SUNNY 77 65 66 CALM 30.07R LAGUARDIA APRT SUNNY 77 67 71 NE9 30.03R KENNEDY INTL MOSUNNY 79 67 66 NE6 30.04R NEWARK/LIBERTY MOSUNNY 80 66 62 N8 30.03R BRNX BOT. GARD N/A 75 66 73 N9 30.05S TETERBORO SUNNY 76 65 68 N3 30.03R $$ NYZ177-179-078>081-011300- LONG ISLAND NEW YORK CITY SKY/WX TMP DP RH WIND PRES REMARKS FARMINGDALE SUNNY 76 66 71 N10 30.04R ISLIP MOSUNNY 76 67 73 N7 30.02R SHIRLEY SUNNY 75 66 73 N7 30.04R WESTHAMPTON SUNNY 76 67 73 N8 30.04R MONTAUK POINT N/A 74 66 76 N6 30.04R $$ NYZ052-065-067-011300- HUDSON VALLEY CITY SKY/WX TMP DP RH WIND PRES REMARKS WHITE PLAINS SUNNY 73 65 75 N7 30.05R NEWBURGH SUNNY 66 66 100 CALM 30.08R MONTGOMERY SUNNY 67 65 93 CALM 30.07R FOG POUGHKEEPSIE SUNNY 67 64 90 CALM 30.06R ALBANY SUNNY 68 63 84 CALM 30.07R $$ NJZ001-105-106-008-010-013-015-019>022-104-011300- NEW JERSEY CITY SKY/WX TMP DP RH WIND PRES REMARKS NEWARK/LIBERTY MOSUNNY 80 66 62 N8 30.03R TETERBORO SUNNY 76 65 68 N3 30.03R CALDWELL SUNNY 72 66 81 CALM 30.05R MORRISTOWN SUNNY 72 72 100 CALM 30.05R SOMERVILLE SUNNY 70 66 87 CALM 30.03S FOG SUSSEX SUNNY 66 63 90 CALM 30.07S FOG ANDOVER N/A 66 66 100 CALM 30.08R TRENTON SUNNY 73 68 84 NW5 30.05R HAZE MILLVILLE SUNNY 73 71 93 W3 30.05R ATLANTIC CITY SUNNY 74 71 91 W5 30.04R WRIGHTSTOWN SUNNY 73 71 96 NW5 30.02R TOMS RIVER SUNNY 73 70 88 NW3 30.05R BELMAR SUNNY 72 63 73 NW6 30.04R $$ PAZ047>061-062-071-011300- EASTERN PENNSYLVANIA CITY SKY/WX TMP DP RH WIND PRES REMARKS PHILADELPHIA SUNNY 76 68 76 N3 30.05R ALLENTOWN SUNNY 70 67 90 CALM 30.07R SCRANTON MOSUNNY 68 62 81 CALM 30.10S HAZE $$ CTZ002-004>006-009-010-012-RIZ004-006-007-MAZ004-011-015-011300- SOUTHERN NEW ENGLAND IN CT CITY SKY/WX TMP DP RH WIND PRES REMARKS BRADLEY INTL SUNNY 69 63 81 CALM 30.05R HARTFORD SUNNY 71 64 78 N7 30.04S DANBURY SUNNY 68 63 84 CALM 30.08R HAZE WTRBRY/OXFORD SUNNY 84 61 45 N7 30.08R BRIDGEPORT SUNNY 75 65 70 N9 30.04R MERIDEN SUNNY 72 64 76 NW3 30.05R NEW HAVEN SUNNY 72 65 78 N8 30.04R CHESTER NOT AVBL GROTON SUNNY 73 65 75 N6 30.03R WILLIMANTIC SUNNY 66 62 87 NE3 30.05R IN RI CITY SKY/WX TMP DP RH WIND PRES REMARKS PROVIDENCE SUNNY 72 62 71 N7 30.03S BLOCK ISLAND SUNNY 72 66 83 N5 30.03R WESTERLY SUNNY 73 63 70 N6 30.04R IN MA CITY SKY/WX TMP DP RH WIND PRES REMARKS BOSTON MOSUNNY 72 61 68 N8 30.03R WORCESTER SUNNY 69 58 67 NE9 30.07R WESTFIELD SUNNY 68 63 84 CALM 30.06R PROVINCETOWN N/A 70 63 78 N7 30.02S NANTUCKET SUNNY 75 67 76 N9 30.01R $$ ANZ330-335-338-340-345-350-353-355-011300- COASTAL MARINE OBSERVATIONS STATION/POSITION TIME SKY/WX TEMP WIND PRES VSBY WAVE AIR SEA DIR/SP/G HT/PER (UTC) (F) (DEG/KT/KT) (MB) (MI) (FT/S) NY HARB ENTRANCE 1050 75 76 320/ 6/ 8 1016.1 2/ 9 4S FIRE IS NOT AVBL 20S FIRE ISLAND 1050 74 74 340/ 6/ 6 1015.9 3/ 5 GREAT SOUTH BAY 1100 74 78 340/ 6/ 6 N/A 23SW MTP 1150 72 72 360/ 8/ 10 1016.1 3/ 9 HUDSON CANYON NOT AVBL KINGS POINT 1100 74 72 60/ 4/ 6 1016.1 EXECUTION ROCKS 1100 74 30/ 6/ 6 N/A CENTRAL LI SOUND NOT AVBL EASTERN LI SOUND 1100 72 71 10/ 6/ 8 N/A ROBBINS REEF 1100 77 330/ 5/ 7 1015.6 $$ >>>>>>>>>>>>>>>>>>>>>>>>>>>> KEY <<<<<<<<<<<<<<<<<<<<<<<<<<< > < > SKY/WX - SKY CONDITION/PRESENT WEATHER < > TMP - TEMPERATURE IN FAHRENHEIT < > DP - DEWPOINT IN FAHRENHEIT < > RH - RELATIVE HUMIDITY IN PERCENT < > WIND - DIRECTION AND SPEED IN MPH < > PRES - MEAN SEA LEVEL PRESSURE IN INCHES OF HG < > WCI - WIND CHILL INDEX < > VSB - VISIBILITY IN MILES < > HX - HEAT INDEX < > TC - TEMPERATURE IN CELSIUS < > VRB - VARIABLE WIND DIRECTION < > < >>>>>>>>>>>>>>>>>>>>>>>>>>>> KEY <<<<<<<<<<<<<<<<<<<<<<<<<<<

USA.gov is the U.S. government's official web portal to all federal, state and local government web resources and services.